TimeEST,TemperatureF,Dew PointF,Humidity,Sea Level PressureIn,VisibilityMPH,Wind Direction,Wind SpeedMPH,Gust SpeedMPH,PrecipitationIn,Events,Conditions,WindDirDegrees,DateUTC
12:49 AM,46.4,42.8,87,29.28,10.0,SSW,8.1,-,0.04,Rain,Light Rain,200,2013-01-31 05:49:00
12:53 AM,46.9,43.0,86,29.29,10.0,SSW,6.9,-,0.04,,Overcast,210,2013-01-31 05:53:00
1:08 AM,41.0,37.4,87,29.33,3.0,WNW,19.6,41.4,0.05,Rain,Heavy Rain,290,2013-01-31 06:08:00
1:19 AM,42.8,33.8,70,29.34,10.0,West,12.7,31.1,0.05,Rain,Light Rain,260,2013-01-31 06:19:00
1:41 AM,41.0,35.6,81,29.36,10.0,West,13.8,21.9,0.05,Rain,Light Rain,270,2013-01-31 06:41:00
1:53 AM,39.9,34.0,79,29.40,10.0,WNW,12.7,26.5,0.05,Rain,Light Rain,290,2013-01-31 06:53:00
2:53 AM,36.0,30.0,79,29.45,10.0,West,15.0,33.4,0.02,,Overcast,280,2013-01-31 07:53:00
3:53 AM,35.1,27.0,72,29.48,10.0,West,15.0,26.5,0.00,,Overcast,270,2013-01-31 08:53:00
4:05 AM,35.6,24.8,65,29.49,10.0,West,16.1,32.2,N/A,,Overcast,270,2013-01-31 09:05:00
4:53 AM,33.1,24.1,70,29.52,10.0,WSW,11.5,26.5,N/A,,Overcast,250,2013-01-31 09:53:00
5:53 AM,30.9,26.1,82,29.57,6.0,WNW,11.5,20.7,0.00,Snow,Light Snow,290,2013-01-31 10:53:00
6:32 AM,30.2,21.2,69,29.59,10.0,West,12.7,26.5,0.00,,Overcast,260,2013-01-31 11:32:00
6:53 AM,30.9,23.0,72,29.61,9.0,WSW,10.4,18.4,0.00,,Overcast,250,2013-01-31 11:53:00
7:53 AM,30.9,19.9,64,29.65,10.0,West,11.5,25.3,N/A,,Overcast,260,2013-01-31 12:53:00
8:53 AM,30.0,19.9,66,29.68,6.0,WNW,15.0,26.5,N/A,,Haze,290,2013-01-31 13:53:00
8:56 AM,28.4,21.2,74,29.67,1.5,WNW,16.1,26.5,0.00,Snow,Light Snow,290,2013-01-31 13:56:00
9:08 AM,28.4,19.4,69,29.68,3.0,West,11.5,23.0,0.00,Snow,Light Snow,280,2013-01-31 14:08:00
9:53 AM,28.9,17.1,61,29.71,10.0,West,12.7,21.9,0.00,,Overcast,280,2013-01-31 14:53:00
10:53 AM,28.0,15.1,58,29.75,10.0,West,19.6,29.9,N/A,,Overcast,280,2013-01-31 15:53:00
11:53 AM,28.9,18.0,64,29.77,10.0,WSW,10.4,24.2,N/A,,Overcast,250,2013-01-31 16:53:00
12:05 PM,28.4,19.4,69,29.74,8.0,West,12.7,21.9,N/A,,Overcast,280,2013-01-31 17:05:00
12:12 PM,26.6,21.2,80,29.76,1.5,WNW,15.0,24.2,0.00,Snow,Light Snow,290,2013-01-31 17:12:00
12:20 PM,26.6,21.2,80,29.74,0.5,West,11.5,24.2,0.00,Fog-Snow,Light Snow,260,2013-01-31 17:20:00
12:26 PM,26.6,21.2,80,29.75,2.5,WSW,10.4,19.6,0.00,Snow,Light Snow,250,2013-01-31 17:26:00
12:49 PM,26.6,21.2,80,29.75,0.5,West,8.1,20.7,0.00,Fog-Snow,Light Snow,270,2013-01-31 17:49:00
12:53 PM,26.1,21.9,84,29.78,0.8,West,9.2,19.6,0.00,Snow,Light Snow,270,2013-01-31 17:53:00
12:59 PM,26.6,21.2,80,29.75,2.0,West,10.4,18.4,0.00,Snow,Light Snow,280,2013-01-31 17:59:00
1:09 PM,26.6,21.2,80,29.75,1.0,Variable,6.9,19.6,0.00,Snow,Light Snow,0,2013-01-31 18:09:00
1:32 PM,26.6,21.2,80,29.74,3.0,Variable,6.9,-,0.00,Snow,Light Snow,0,2013-01-31 18:32:00
1:39 PM,28.4,19.4,69,29.74,6.0,Variable,5.8,-,0.00,,Haze,0,2013-01-31 18:39:00
1:53 PM,28.9,19.0,67,29.77,10.0,Variable,6.9,20.7,0.00,,Overcast,0,2013-01-31 18:53:00
1:59 PM,28.4,19.4,69,29.75,2.0,West,12.7,20.7,0.00,Snow,Light Snow,280,2013-01-31 18:59:00
2:02 PM,26.6,19.4,74,29.76,0.8,WNW,12.7,21.9,0.00,Snow,Light Snow,290,2013-01-31 19:02:00
2:05 PM,24.8,21.2,86,29.76,0.2,WNW,12.7,21.9,0.00,Fog-Snow,Light Snow,290,2013-01-31 19:05:00
2:12 PM,24.8,21.2,86,29.77,0.2,West,13.8,23.0,0.00,Fog-Snow,Light Snow,280,2013-01-31 19:12:00
2:18 PM,26.6,19.4,74,29.77,1.0,WSW,17.3,28.8,0.00,Snow,Light Snow,250,2013-01-31 19:18:00
2:46 PM,26.6,17.6,69,29.79,7.0,West,11.5,23.0,0.00,,Overcast,260,2013-01-31 19:46:00
2:53 PM,27.0,15.1,61,29.83,10.0,West,10.4,28.8,0.00,,Mostly Cloudy,260,2013-01-31 19:53:00
3:53 PM,26.1,10.9,53,29.87,10.0,WSW,9.2,21.9,N/A,,Overcast,250,2013-01-31 20:53:00
4:53 PM,26.1,10.0,51,29.88,10.0,Variable,5.8,-,N/A,,Overcast,0,2013-01-31 21:53:00
5:53 PM,26.1,10.0,51,29.88,10.0,SW,6.9,-,N/A,,Partly Cloudy,230,2013-01-31 22:53:00
6:53 PM,26.1,10.0,51,29.89,10.0,SW,12.7,21.9,N/A,,Partly Cloudy,230,2013-01-31 23:53:00
7:53 PM,25.0,12.9,60,29.90,10.0,Variable,6.9,-,N/A,,Scattered Clouds,0,2013-02-01 00:53:00
9:53 PM,25.0,17.1,72,29.91,6.0,SW,8.1,-,0.00,Snow,Light Snow,220,2013-02-01 02:53:00
10:28 PM,24.8,17.6,74,29.86,10.0,SSW,5.8,-,0.00,,Overcast,210,2013-02-01 03:28:00
10:53 PM,25.0,18.0,75,29.90,10.0,SSW,5.8,-,0.00,,Overcast,200,2013-02-01 03:53:00
11:10 PM,24.8,19.4,80,29.84,10.0,SSW,6.9,-,N/A,,Mostly Cloudy,210,2013-02-01 04:10:00
11:25 PM,24.8,19.4,80,29.84,10.0,SSW,4.6,-,N/A,,Overcast,210,2013-02-01 04:25:00
11:50 PM,24.8,19.4,80,29.83,5.0,SW,4.6,-,0.00,Snow,Light Snow,220,2013-02-01 04:50:00
11:53 PM,25.0,19.9,81,29.87,4.0,Variable,4.6,-,0.00,Snow,Light Snow,0,2013-02-01 04:53:00